Scroll down
FLIGHT INFORMATION
Canadian Airlines

CDN901

At Arrival Gate

CYYZ
 CYUL
DATE: 2018-07-02
GATE:  -
GATE DEPARTURE: 16:27
TAKEOFF: 16:45
DATE: 2018-07-02
GATE:  -
LANDING: 17:38
GATE ARRIVAL: 17:44
FLIGHT DATA
Crew: 
Speed: 
939 kph
Altitude: 
35,015 ft
Stage Length: 
507.2 km
Block Time: 
1.2 hrs
Flight Time: 
0.9 hrs
Fuel Used: 
10,325 kg
Cleared Route: 
TRACK DATA
50,000 ft 1,000 kts
AIRCRAFT INFO AND CUMULATIVE STATS
Aircraft Type: 
B744
Registration: 
SELCAL: 
ABEQ
MSN/LN: 
24883 / 823
Operator: 
Total Flights: 
4
Total Block Time: 
24.6 hrs
Total Flight Time: 
23.6 hrs
Total Fuel Used: 
236,442 kg
DATALINK LOG | Newest first | Current as of: 2022-10-04 20:44:13
LABEL SEQUENCE CONTENT Dn/Up
QA026118:26 45.4▼ Dn
QD044917:44 45.7▼ Dn
GA3927▲ Up
GR4014CYUL▼ Dn
QC384317:38▼ Dn
GA2715▲ Up
GR2856CYUL▼ Dn
GA2715▲ Up
GR2853CYUL▼ Dn
QB452716:45▼ Dn
QA273016:27 68.7▼ Dn
2U1733CYYZ 021800Z 23013G23KT 15SM SCT040TCU SCT140 BKN220 33/23 A2995 RMK TCU3AC1CI3 TCU ALQDS SLP139 DENSITY ALT 2700FT▲ Up
2S1922CYYZ▼ Dn
2U1632CYUL 021800Z 21011G17KT 15SM FEW040 FEW250 35/21 A2992 RMK CU1CI1 SLP132 DENSITY ALT 2400FT▲ Up
2S1844CYUL▼ Dn
5U1432TAF CYUL 021738Z 0218/0318 21012G22KT P6SM FEW050 FM022200 22015G25KT P6SM SCT050 BKN240 TEMPO 0222/0302 VRB15G35KT 1SM +TSRAGR BR BKN012 OVC040CB FM030200 26010KT P6SM -SHRA BKN030 FM030400 26008KT P6SM FEW040 FM031600 25010G20KT P6SM SKC RMK NXT FCST BY 022100Z▲ Up
2U1431CYYZ 021800Z 23013G23KT 15SM SCT040TCU SCT140 BKN220 33/23 A2995 RMK TCU3AC1CI3 TCU ALQDS SLP139 DENSITY ALT 2700FT▲ Up
2S1619CYYZ▼ Dn


AIRCRAFT HISTORY
FLIGHT DATE FLIGHT NO. ORIGIN DESTINATION CLEARED ROUTE BLOCK TIME FLIGHT TIME FUEL USED PILOT
2019-08-02CDN801CYYZ VHHH CYYZ TONNY YYB 5080N 5581N 6083N 6585N 7088N YRB 80N10 82N30 LAHEY LETUN LOMRI IDIMA OGTIL GIKSI TEMGA ABDAG GANPA RUSED ARTUN NAROV DEBED PITIL OLDEP OKUNI RELSO RIKLI UNARU IDRAN URIPA BALOP TINEG TEBRI GABAL NEKLU BIGMA SULOK BURIM PICAS ZOBUL POLHO UKBAD TMR TZH LARAD UBTAB SJW OLRAP WXI AKOMA IDULA ZHO OBLIK ESDOS HOK LKO DAPRO AKUBA LUMKO PAVTU LIG NIVEM BEMAG NNX WYN SANIP NOMAR UBLIM NLG ZUH SIERA VHHH14.8 hrs14.6 hrs329,346 lbBig Swede
2018-12-25CDN748TNCM CYYZ JUICE LARPP PASIC STT PALCO CHAKA SJU JAAWS UTAHS ELMUC MYSTR LERUG DUNED CERDA LETON ILIDO JAINS OLDEY ILM RIC56 FAK LDN WOZEE4.6 hrs4.3 hrs89,902 lbJason Brown
2018-12-24CDN745CYUL TNCM WARDS MHT BOS ACK LARGE BOVIC BDA GECAL TALSU NUBUS KEEKA TRNKY PJM4.1 hrs3.8 hrs79,254 lbJason Brown
2018-07-02CDN901CYYZ CYUL 1.2 hrs0.9 hrs22,763 lbJason Brown